Regional Weather Roundup
Issued by NWS Mobile, AL

Home | Current Version | Previous Version | Text Only | Print | Product List | Glossary On
Versions: 1 2 3 4 5 6 7 8 9 10 11 12 13 14 15 16 17 18 19 20 21 22 23 24 25 26 27 28 29 30 31 32 33 34 35 36 37 38 39 40 41 42 43 44 45 46 47 48 49 50
000
ASUS44 KMOB 290416
RWRMOB
REGIONAL WEATHER ROUNDUP
NATIONAL WEATHER SERVICE MOBILE AL
1100 PM CDT SAT MAR 28 2015

ALZ061>064-290500-
COASTAL ALABAMA


CITY           SKY/WX    TMP DP  RH WIND       PRES   REMARKS
MOBILE REG APT CLEAR     48  35  60 NE6       30.29R
BROOKLEY FIELD CLEAR     52  36  54 NE9       30.30R
GULF SHORES    CLEAR     49  37  61 CALM      30.28S

$$

ALZ051>060-290500-
INTERIOR SOUTHWEST AND SOUTH CENTRAL ALABAMA


CITY           SKY/WX    TMP DP  RH WIND       PRES   REMARKS
ANDALUSIA/OPP  CLOUDY    48  30  49 N8        30.28S
EVERGREEN      CLOUDY    45  32  60 N5        30.29F
FLORALA        CLEAR     43  31  62 NW3       30.30R
GREENVILLE     FAIR      40  35  83 CALM      30.29S

$$

FLZ001>006-290500-
WESTERN FLORIDA PANHANDLE


CITY           SKY/WX    TMP DP  RH WIND       PRES   REMARKS
CRESTVIEW      CLEAR     46  30  53 N5        30.30R
DESTIN         CLEAR     52  31  44 N9        30.29R
DUKE FIELD     CLEAR     46  53 100 NW2       30.29R
MARY ESTHER    CLEAR     48  27  43 N8        30.28R
MILTON         CLEAR     49  29  46 NE6       30.29R
PENSACOLA      CLEAR     50  30  46 NE6       30.28R
NAS PENSACOLA  CLEAR     50  35  56 NE6       30.28R
VALPARAISO     CLEAR     49  28  43 NE8       30.28R

$$

...MARINE OBSERVATIONS...

STATION/POSITION TIME  SKY/WX   TEMP    WIND        PRES    VSBY
                                AIR SEA DIR/SP/G
                 (UTC)          (F)     (DEG/KT/KT) (MB)    (MI)
PASCAGOULA       0300            59     130/  4/  6 1024.2R
PETIT BOIS ISL   0300            60     150/  4/  6 1024.8R
E DAUPHIN ISLAND 0400            59      60/ 13/ 14 1024.8S
MIDDLE BAY LIGHT 0300                    60/ 14     1024.7R
USCG MOBILE BAY  0300            53 64   40/ 11/ 12 1024.5R
STATE DOCKS      0300                               1025.2R
MEAHER PARK      0400            50      60/  3     1026.1R
FORT MORGAN      0300            59      40/  5/  6 1024.5R
12 S ORANGE BCH  0350            60 67  350/  4/  6 1024.8R
WVE H/P(F/S)=  1

PENSACOLA BAY    0300            56 69   20/  5/  7 1025.5R
64 S DAUPHIN ISL 0350            61 71  130/  4/  6 1025.3R
WVE H/P(F/S)=  1/ 5

115 SE PENSACOLA 0350            61 75  350/  6/ 10 1025.6R
WVE H/P(F/S)=  2/ 6

MID GULF/42001   0350            74 79   70/  6/  8 1024.5R
WVE H/P(F/S)=  2/ 6

EAST GULF/42003  0350            68 74   30/  8/ 12 1024.5R
WVE H/P(F/S)=  3/ 6


$$

...NEARBY LOCATIONS

CITY           SKY/WX    TMP DP  RH WIND       PRES   REMARKS
GULFPORT       CLEAR     52  46  80 CALM      30.26R
BILOXI         CLEAR     52  47  82 NE7       30.26R
PASCAGOULA     CLEAR     50  41  71 E3        30.27R
HATTIESBURG    CLEAR     48  35  60 E6        30.30R
LAUREL         CLEAR     45  32  61 NE3       30.29R
MERIDIAN       CLEAR     41  30  65 NE5       30.30R
MERIDIAN NAS   NOT AVBL
MONTGOMERY     CLOUDY    48  31  51 NW5       30.31R
MAXWELL AFB    CLOUDY    47  30  52 W3        30.30R
TROY           PTCLDY    43  31  62 NW6       30.31R
FORT RUCKER    CLEAR     42  33  70 CALM      30.27S
DALEVILLE      CLEAR     45  29  54 NW6       30.28R
DOTHAN         CLEAR     44  31  60 N8        30.31R

$$

...OTHER SURROUNDING LOCATIONS...

CITY           SKY/WX    TMP DP  RH WIND       PRES   REMARKS
BIRMINGHAM     CLOUDY    44  21  40 N3        30.32R
TUSCALOOSA     CLOUDY    44  31  60 NW5       30.35R
COLUMBUS GA    CLOUDY    48  19  31 N6        30.28R
PANAMA CITY    NOT AVBL
TALLAHASSEE    CLEAR     51  36  56 NW3       30.27R
BATON ROUGE    CLEAR     58  50  75 SE6       30.20S
NEW ORLEANS    CLEAR     58  49  72 SE8       30.23S
SLIDELL        CLEAR     53  49  86 CALM      30.24R
JACKSON        CLEAR     44  33  65 E6        30.28R
MCCOMB         CLEAR     53  38  56 E6        30.24R

$$

...SURROUNDING MARINE OBSERVATIONS...

STATION/POSITION TIME  SKY/WX   TEMP    WIND        PRES    VSBY
                                AIR SEA DIR/SP/G
                 (UTC)          (F)     (DEG/KT/KT) (MB)    (MI)
WAVELAND         0300            60 66  190/  6/  9 1023.8R
PASCAGOULA RGN A 0300            60     140/  5/  7 1024.1R
PASCAGOULA PORT  0306               68                N/A
GRAND ISLE       0300            63 67  130/  7/ 11 1023.2R
SOUTHWEST PASS   0400            65     120/ 11/ 12 1023.8R
PILOT STATION E  0300            62 53  120/  9/ 10 1024.2R
SHELL BEACH      0300            59 68  140/  9/ 11 1023.9R
PANAMA CITY      0300            55 67   20/  7/ 11 1024.3R
APALACHICOLA     0300            55 66  350/  4/  5 1024.1R
TYNDALL TOWER C  0400            60     350/ 10/ 10 1024.9R
S APLCHCLA/42036 0350            62 68  330/ 10/ 12 1024.5R
WVE H/P(F/S)=  3/ 6


$$




USA.gov is the U.S. government's official web portal to all federal, state and local government web resources and services.